Simultaneous Nadir Overpasses (SNOs) Predictions

Prediction of SNOs near equator between AQUA and NPP Satellite Orbit:

Table of predicted SNOs near equator for the next 14.0 days since TLE Epoch: 2/20/2017
Index Date (AQUA) Time (AQUA) AQUA Lat,Lon Date (NPP) Time (NPP) NPP Lat,Lon Distance(km) Time Diff (sec)
1 02/22/2017 16:25:21 3.97, -43.01 02/22/2017 16:15:58 3.91, -43.35 38.66 563
2 02/22/2017 17:13:28 0.55, 125.62 02/22/2017 17:05:20 0.70, 125.01 68.89 488
3 02/22/2017 18:01:43 -5.16, -65.78 02/22/2017 17:54:51 -5.31, -66.66 98.60 412
4 02/25/2017 07:59:32 -29.98,-100.73 02/25/2017 07:49:32 -30.28,-101.26 60.37 600
5 02/25/2017 08:41:29 2.62, 73.16 02/25/2017 08:32:28 2.53, 72.74 48.21 541
6 02/25/2017 09:29:36 1.84,-118.23 02/25/2017 09:21:50 2.01,-118.91 78.46 466
7 02/28/2017 00:09:21 -5.88, 20.73 02/27/2017 23:59:27 -5.83, 20.48 27.65 594
8 02/28/2017 00:57:37 1.34,-170.68 02/28/2017 00:48:58 1.22,-171.19 57.91 519
9 02/28/2017 01:45:43 3.25, -2.05 02/28/2017 01:38:20 3.39, -2.83 87.92 443
10 03/02/2017 16:25:29 -4.55, 136.89 03/02/2017 16:15:57 -4.46, 136.57 37.33 572
11 03/02/2017 17:13:44 -0.05, -54.51 03/02/2017 17:05:28 -0.15, -55.11 67.57 496
12 03/02/2017 18:01:51 4.58, 114.12 03/02/2017 17:54:50 4.76, 113.26 97.30 421
13 03/05/2017 08:41:36 -3.16,-106.93 03/05/2017 08:32:27 -3.09,-107.35 47.04 549
14 03/05/2017 09:29:52 -1.37, 61.66 03/05/2017 09:21:58 -1.52, 60.98 77.16 474
